Temp
-4 -4 -4 -4 -4 -4 -4 -5 -5 -5 -5 -5 -6 -6 -6 -6 -6 -6 -7 -7 -7 -7 -7 -8 -8 -7 -7 -8 -8 -8 -8 -8 -9 -9 -9 -9 -9 -10 -9 -9 -9 -9 -9
-4 -4 -4 -4 -4 -4 -4 -5 -5 -5 -5 -5 -5 -5 -6 -6 -6 -7 -7 -7 -7 -7 -7 -7 -8 -7 -7 -8 -8 -8 -8 -8 -9 -9 -9 -9 -9 -9 -9 -9 -9 -9 -9
-5 -5 -4 -4 -4 -4 -4 -4 -5 -5 -5 -5 -5 -5 -6 -6 -6 -6 -7 -7 -7 -7 -7 -8 -7 -7 -7 -7 -8 -8 -8 -8 -8 -9 -9 -9 -9 -9 -9 -9 -8 -9 -9
-5 -5 -5 -4 -4 -4 -4 -4 -4 -5 -5 -5 -5 -5 -5 -6 -6 -6 -7 -7 -7 -7 -7 -8 -8 -7 -7 -7 -7 -8 -8 -8 -8 -8 -8 -9 -9 -9 -9 -8 -8 -8 -9
-5 -5 -5 -5 -5 -4 -4 -4 -4 -4 -5 -5 -5 -5 -5 -5 -6 -6 -6 -6 -7 -7 -7 -7 -8 -7 -7 -7 -7 -8 -8 -8 -8 -8 -8 -8 -8 -9 -8 -8 -8 -8 -8
-6 -5 -5 -4 -4 -5 -4 -4 -4 -4 -4 -4 -5 -5 -5 -5 -5 -6 -6 -6 -6 -7 -7 -7 -7 -7 -7 -7 -7 -8 -8 -8 -8 -8 -8 -8 -8 -8 -9 -8 -8 -8 -8
-6 -6 -6 -5 -5 -5 -5 -4 -4 -4 -4 -4 -4 -5 -5 -5 -6 -6 -6 -6 -6 -6 -7 -7 -7 -7 -7 -7 -7 -7 -8 -8 -8 -8 -8 -8 -9 -9 -8 -8 -8 -8 -8
-6 -6 -6 -6 -5 -5 -5 -4 -4 -4 -4 -4 -4 -4 -5 -5 -5 -6 -6 -5 -5 -6 -6 -7 -7 -7 -7 -7 -7 -8 -8 -8 -8 -8 -8 -8 -8 -8 -8 -8 -8 -9 -9
-6 -6 -6 -6 -6 -5 -4 -4 -4 -4 -4 -4 -4 -4 -4 -4 -5 -5 -5 -5 -5 -5 -6 -6 -7 -7 -7 -7 -8 -8 -8 -7 -8 -8 -8 -8 -8 -8 -8 -8 -8 -8 -8
-7 -7 -7 -7 -6 -6 -5 -5 -5 -4 -4 -4 -4 -4 -4 -4 -4 -5 -5 -5 -4 -5 -6 -6 -6 -6 -7 -7 -8 -8 -8 -8 -8 -7 -8 -8 -8 -8 -8 -7 -7 -8 -8
-7 -7 -7 -7 -7 -7 -6 -6 -5 -5 -4 -4 -4 -4 -4 -4 -4 -4 -4 -4 -4 -4 -5 -6 -6 -6 -6 -7 -7 -7 -8 -8 -8 -8 -8 -8 -8 -8 -8 -8 -7 -8 -8
-7 -7 -7 -7 -7 -7 -6 -6 -6 -5 -5 -4 -4 -4 -4 -4 -4 -4 -4 -4 -4 -4 -5 -5 -6 -6 -6 -6 -7 -7 -7 -7 -7 -8 -7 -8 -8 -8 -8 -7 -7 -8 -7
-7 -7 -7 -7 -7 -6 -6 -6 -6 -5 -5 -5 -4 -4 -4 -4 -4 -4 -4 -5 -5 -5 -4 -5 -5 -6 -5 -6 -6 -7 -7 -7 -7 -7 -7 -8 -8 -8 -7 -7 -7 -7 -7
-8 -7 -7 -6 -6 -6 -6 -6 -6 -5 -5 -5 -5 -5 -4 -4 -4 -4 -4 -5 -5 -4 -5 -5 -4 -5 -5 -6 -6 -7 -7 -7 -7 -7 -7 -8 -8 -8 -7 -7 -7 -7 -7
-8 -8 -7 -7 -7 -7 -6 -6 -5 -5 -5 -5 -6 -5 -5 -5 -4 -4 -4 -4 -4 -5 -5 -4 -4 -4 -5 -6 -6 -7 -7 -7 -7 -7 -8 -8 -8 -8 -7 -7 -7 -7 -7
-8 -8 -8 -7 -7 -6 -7 -7 -6 -5 -6 -6 -6 -6 -6 -5 -4 -4 -4 -4 -4 -5 -5 -5 -5 -4 -5 -6 -6 -6 -7 -7 -7 -7 -8 -8 -8 -8 -7 -7 -7 -7 -7
-8 -8 -8 -7 -7 -7 -7 -7 -7 -6 -6 -6 -6 -6 -5 -5 -5 -4 -4 -5 -4 -4 -4 -5 -5 -5 -5 -6 -6 -6 -6 -7 -7 -7 -8 -8 -8 -7 -7 -7 -7 -7 -7
-8 -8 -8 -7 -7 -7 -7 -7 -7 -6 -6 -6 -6 -6 -6 -5 -5 -5 -5 -5 -5 -5 -5 -5 -4 -4 -5 -5 -6 -6 -6 -7 -7 -7 -8 -8 -8 -7 -7 -7 -7 -7 -7
-8 -8 -8 -8 -7 -7 -7 -7 -7 -7 -6 -6 -6 -6 -6 -6 -5 -5 -6 -6 -6 -6 -6 -5 -5 -6 -6 -6 -6 -6 -6 -7 -8 -8 -8 -8 -7 -7 -7 -7 -7 -7 -7
-8 -8 -8 -8 -8 -7 -7 -8 -6 -7 -7 -7 -7 -6 -6 -7 -6 -6 -6 -7 -7 -7 -7 -6 -6 -7 -7 -7 -6 -6 -7 -7 -8 -8 -8 -8 -7 -7 -7 -7 -7 -7 -7
-9 -9 -8 -8 -9 -8 -8 -8 -8 -8 -8 -8 -7 -7 -6 -7 -7 -7 -8 -7 -7 -7 -8 -8 -7 -7 -7 -7 -7 -7 -8 -8 -8 -8 -8 -8 -7 -7 -7 -7 -7 -7 -7
-9 -9 -9 -8 -8 -9 -9 -9 -8 -8 -8 -8 -8 -8 -8 -7 -7 -8 -8 -8 -8 -10 -9 -10 -9 -8 -8 -8 -8 -8 -8 -8 -8 -8 -7 -7 -7 -7 -7 -7 -7 -7 -8
-10 -9 -9 -9 -9 -9 -9 -9 -9 -8 -9 -8 -8 -8 -8 -8 -8 -9 -8 -7 -7 -7 -8 -9 -9 -9 -9 -8 -8 -8 -9 -9 -8 -7 -7 -7 -7 -7 -7 -7 -7 -7 -8
-11 -10 -10 -9 -9 -9 -9 -8 -9 -9 -9 -8 -8 -8 -8 -8 -9 -8 -8 -8 -8 -8 -9 -9 -9 -9 -9 -8 -8 -8 -9 -9 -9 -8 -8 -8 -7 -7 -7 -7 -7 -7 -8
-11 -11 -10 -10 -10 -10 -9 -9 -9 -8 -8 -8 -8 -9 -9 -8 -8 -8 -9 -9 -9 -9 -10 -10 -10 -9 -9 -8 -8 -8 -9 -9 -9 -8 -8 -8 -7 -7 -7 -7 -8 -8 -8
-12 -11 -11 -11 -10 -10 -10 -9 -9 -8 -9 -9 -8 -9 -8 -8 -8 -9 -9 -9 -9 -9 -9 -9 -9 -9 -8 -8 -8 -8 -9 -9 -9 -9 -8 -8 -7 -7 -7 -8 -8 -8 -8
Height
5921 5924 5928 5931 5935 5939 5942 5944 5947 5948 5950 5952 5953 5954 5956 5956 5957 5957 5958 5959 5960 5960 5960 5959 5958 5957 5956 5954 5951 5947 5943 5939 5934 5928 5922 5916 5907 5899 5890 5882 5874 5864 5855
5917 5920 5925 5928 5931 5935 5939 5942 5944 5947 5949 5950 5951 5953 5954 5955 5956 5956 5957 5957 5958 5958 5958 5958 5956 5955 5953 5952 5949 5946 5942 5937 5933 5927 5920 5911 5904 5899 5890 5880 5870 5861 5852
5912 5917 5921 5925 5929 5932 5935 5938 5941 5943 5946 5948 5949 5951 5952 5953 5954 5954 5955 5956 5957 5957 5956 5956 5954 5953 5951 5948 5947 5944 5940 5936 5930 5923 5918 5910 5904 5897 5888 5879 5868 5858 5849
5906 5912 5917 5921 5925 5928 5931 5934 5937 5939 5941 5944 5946 5948 5949 5950 5951 5952 5952 5952 5954 5954 5954 5953 5951 5949 5947 5946 5944 5942 5938 5932 5926 5921 5915 5907 5900 5893 5886 5876 5863 5854 5841
5903 5907 5912 5915 5919 5923 5926 5930 5932 5935 5938 5940 5942 5944 5945 5947 5948 5948 5948 5949 5950 5950 5950 5949 5947 5946 5943 5942 5939 5936 5933 5929 5924 5917 5910 5903 5897 5888 5878 5868 5859 5848 5836
5898 5903 5906 5910 5913 5917 5921 5924 5926 5930 5933 5935 5937 5939 5941 5943 5944 5944 5944 5944 5945 5946 5946 5945 5943 5941 5939 5938 5937 5934 5930 5924 5918 5913 5907 5899 5892 5884 5875 5864 5855 5845 5835
5893 5897 5900 5904 5908 5912 5916 5919 5923 5926 5928 5931 5933 5934 5936 5938 5939 5940 5940 5940 5940 5941 5941 5940 5939 5937 5935 5934 5934 5931 5928 5923 5917 5910 5904 5897 5889 5880 5873 5862 5850 5840 5830
5888 5891 5895 5898 5902 5906 5910 5913 5917 5920 5923 5925 5927 5929 5931 5932 5933 5934 5935 5935 5936 5935 5935 5934 5934 5932 5930 5928 5928 5924 5922 5920 5914 5908 5902 5894 5885 5877 5867 5857 5845 5837 5827
5883 5886 5889 5892 5896 5899 5903 5907 5910 5913 5916 5919 5921 5923 5925 5927 5927 5928 5928 5929 5930 5930 5930 5929 5928 5927 5925 5923 5922 5920 5917 5912 5910 5905 5899 5891 5881 5873 5863 5852 5843 5833 5823
5878 5880 5883 5886 5888 5891 5895 5898 5902 5904 5907 5909 5911 5914 5916 5919 5920 5921 5920 5921 5923 5924 5924 5923 5922 5920 5920 5919 5916 5914 5911 5908 5905 5900 5895 5886 5878 5868 5860 5850 5839 5829 5820
5871 5874 5877 5880 5883 5885 5888 5890 5893 5896 5899 5901 5905 5907 5909 5912 5913 5913 5914 5913 5916 5916 5917 5917 5915 5914 5914 5913 5911 5908 5906 5903 5899 5895 5889 5882 5873 5865 5855 5846 5835 5824 5814
5866 5870 5873 5875 5877 5880 5882 5883 5885 5888 5890 5893 5896 5899 5902 5904 5905 5907 5907 5907 5907 5907 5908 5909 5908 5908 5907 5906 5905 5903 5899 5896 5892 5888 5881 5875 5867 5859 5850 5841 5831 5821 5811
5861 5864 5867 5869 5871 5873 5875 5877 5877 5880 5882 5885 5887 5890 5892 5894 5896 5897 5898 5898 5897 5897 5899 5900 5899 5899 5899 5899 5897 5895 5892 5889 5886 5881 5876 5869 5861 5854 5845 5837 5827 5817 5806
5853 5856 5858 5862 5864 5865 5866 5868 5870 5871 5873 5876 5877 5879 5880 5882 5884 5886 5888 5888 5887 5888 5889 5889 5889 5888 5890 5891 5890 5888 5884 5881 5879 5874 5869 5862 5856 5848 5839 5831 5821 5813 5802
5842 5845 5849 5851 5854 5856 5857 5858 5861 5862 5863 5864 5866 5866 5868 5870 5872 5874 5875 5878 5880 5880 5879 5880 5880 5878 5880 5882 5880 5877 5876 5874 5870 5866 5861 5855 5849 5842 5834 5825 5816 5807 5797
5831 5834 5837 5841 5843 5846 5848 5849 5851 5852 5853 5853 5855 5855 5856 5857 5859 5861 5863 5865 5869 5869 5869 5870 5869 5870 5868 5870 5869 5868 5869 5864 5862 5858 5854 5849 5844 5837 5828 5820 5810 5802 5793
5818 5822 5825 5828 5831 5834 5837 5838 5840 5840 5840 5840 5842 5842 5843 5846 5847 5847 5849 5853 5855 5859 5861 5859 5859 5859 5859 5861 5861 5858 5858 5857 5853 5850 5846 5842 5836 5831 5823 5814 5805 5797 5789
5805 5809 5811 5816 5820 5823 5824 5827 5829 5829 5828 5829 5829 5830 5831 5831 5834 5836 5838 5840 5841 5843 5847 5849 5849 5850 5849 5851 5851 5849 5847 5846 5844 5841 5837 5833 5829 5823 5815 5807 5799 5791 5784
5790 5795 5799 5804 5806 5810 5810 5810 5815 5815 5813 5814 5816 5817 5821 5822 5823 5825 5824 5827 5830 5831 5834 5836 5837 5838 5839 5841 5840 5839 5838 5836 5834 5831 5828 5824 5820 5815 5808 5801 5793 5786 5779
5776 5781 5786 5790 5792 5796 5800 5800 5794 5795 5800 5803 5804 5808 5810 5807 5807 5809 5810 5810 5813 5818 5822 5825 5826 5828 5829 5831 5830 5829 5828 5826 5824 5822 5819 5814 5811 5807 5801 5795 5788 5782 5774
5763 5767 5771 5775 5776 5781 5785 5788 5787 5784 5789 5791 5794 5796 5795 5794 5793 5796 5799 5799 5800 5802 5806 5812 5815 5817 5820 5820 5820 5819 5818 5816 5814 5812 5809 5804 5802 5799 5793 5788 5782 5777 5770
5748 5752 5757 5760 5763 5766 5769 5771 5774 5775 5776 5780 5783 5784 5782 5782 5784 5785 5787 5783 5774 5779 5791 5797 5802 5807 5809 5810 5809 5809 5807 5806 5804 5803 5800 5796 5793 5790 5786 5781 5776 5771 5764
5733 5737 5741 5745 5749 5752 5755 5756 5758 5757 5763 5766 5768 5770 5770 5772 5773 5774 5778 5765 5766 5773 5772 5781 5793 5796 5797 5798 5799 5799 5797 5797 5795 5793 5792 5788 5784 5781 5778 5773 5769 5763 5758
5718 5721 5725 5729 5734 5736 5739 5741 5743 5747 5750 5753 5755 5756 5757 5759 5761 5761 5765 5768 5765 5766 5770 5780 5784 5786 5787 5787 5788 5787 5787 5787 5786 5784 5782 5779 5776 5773 5770 5765 5761 5756 5753
5703 5707 5710 5713 5718 5721 5724 5728 5731 5735 5736 5739 5741 5744 5746 5749 5753 5755 5755 5756 5759 5762 5763 5767 5772 5775 5774 5775 5775 5775 5775 5776 5775 5774 5773 5770 5767 5764 5761 5758 5753 5749 5744
5688 5691 5696 5699 5702 5706 5709 5712 5716 5718 5719 5724 5726 5730 5733 5735 5736 5740 5744 5747 5749 5754 5757 5759 5761 5761 5761 5763 5764 5764 5764 5763 5764 5763 5762 5760 5757 5754 5750 5749 5746 5742 5737
Wind_Speed
24 22 22 22 22 23 22 22 21 19 18 15 14 13 10 8 7 7 8 8 6 2 2 5 6 10 15 20 24 24 30 33 36 41 43 46 48 53 60 62 59 58 61
26 25 23 22 23 23 24 22 21 20 19 16 13 12 11 10 9 8 9 9 9 6 3 3 6 8 11 17 22 24 28 34 32 36 40 44 56 59 61 61 60 59 59
26 26 25 24 21 22 23 24 23 21 20 19 14 12 11 11 12 12 11 11 11 10 7 6 7 12 13 14 17 23 28 27 31 32 39 48 55 60 63 61 59 59 63
28 28 27 24 23 22 22 22 23 22 21 21 18 15 14 13 12 14 15 15 15 14 13 11 11 14 14 17 19 20 27 29 34 38 46 51 53 59 63 63 61 63 70
29 30 29 27 25 25 24 22 22 22 22 21 20 18 15 13 14 15 17 18 18 20 19 17 16 17 18 19 23 24 29 30 37 36 45 50 54 58 65 67 65 61 62
26 30 31 31 29 27 26 25 25 23 23 22 19 19 18 16 15 14 16 18 19 21 24 25 24 23 25 23 23 25 29 32 36 40 44 49 55 59 65 67 66 60 66
24 30 31 31 30 28 27 27 27 25 25 23 21 22 20 19 20 18 16 16 18 20 23 27 28 29 29 30 24 21 26 27 34 40 43 47 55 59 64 68 66 61 62
21 24 31 30 29 29 29 29 27 27 27 26 25 24 23 20 21 21 21 20 18 19 21 25 26 30 31 31 27 27 27 27 32 37 43 48 52 57 63 69 66 62 60
20 21 23 27 30 31 32 31 30 30 30 29 29 30 27 25 26 25 25 22 20 19 20 23 25 27 31 28 21 24 28 34 35 39 42 47 49 58 63 68 66 61 59
19 19 19 20 23 27 30 32 33 34 34 34 33 33 32 30 30 30 29 28 22 21 20 21 24 27 27 25 21 25 27 31 36 40 42 46 50 57 62 66 64 59 60
23 24 23 21 21 20 24 28 32 36 37 36 35 35 33 32 32 33 33 32 27 26 25 24 26 25 24 24 24 26 29 33 37 40 43 45 49 54 61 66 64 61 60
25 22 20 23 24 25 27 28 31 34 36 37 38 37 35 34 33 33 33 33 33 32 30 29 30 28 27 25 24 26 32 35 38 40 45 46 49 54 61 65 64 59 60
28 25 24 22 21 22 27 31 35 35 36 37 39 39 39 39 37 36 35 34 36 35 34 33 34 34 30 26 26 28 33 36 38 39 44 46 49 55 61 63 60 58 60
36 31 30 28 26 27 31 31 35 35 35 36 39 40 43 44 43 42 38 39 39 38 36 37 36 38 32 30 30 32 37 39 38 39 42 45 49 55 61 60 56 55 59
44 40 39 37 35 32 34 34 33 36 37 38 38 41 43 44 46 46 46 43 40 39 40 38 38 39 36 32 33 36 38 40 40 40 41 45 48 54 59 52 54 55 56
49 47 47 45 43 41 36 37 37 38 41 44 44 43 44 45 45 46 48 47 43 41 41 39 39 38 42 38 37 39 37 40 39 39 40 44 48 51 54 54 54 55 54
51 54 54 52 50 47 43 40 41 40 41 44 46 46 46 46 45 45 47 48 49 45 42 41 39 40 41 39 37 39 39 38 39 38 40 43 46 49 52 51 51 51 52
59 60 59 56 55 53 50 46 45 44 44 44 46 49 50 49 47 46 45 45 48 46 44 41 42 43 42 37 34 35 39 38 36 38 39 43 46 48 49 50 48 49 49
61 62 62 62 61 57 56 55 48 47 49 47 46 48 48 48 49 46 44 44 44 43 43 43 43 41 37 33 32 33 37 36 37 40 43 45 44 46 48 45 46 46 48
58 61 65 66 65 60 53 50 45 54 47 43 44 45 46 47 48 48 46 46 43 42 43 43 41 35 33 34 35 36 36 35 39 43 46 46 42 43 43 43 43 44 48
58 58 58 59 62 63 61 56 57 59 54 45 45 46 47 47 49 45 45 47 49 46 40 35 31 30 28 31 34 35 36 38 41 41 41 30 32 38 40 39 41 42 44
60 61 60 61 60 59 55 59 59 58 58 53 50 48 49 49 47 45 42 48 59 50 35 28 29 30 31 30 33 35 39 42 43 43 32 28 31 34 37 39 41 41 42
61 62 63 63 62 61 60 60 60 62 60 55 53 51 53 49 46 43 41 42 36 26 27 22 29 31 33 33 33 35 37 40 43 34 31 30 31 32 36 38 40 39 40
56 60 64 64 62 65 65 65 64 53 54 56 57 55 54 54 51 51 47 51 48 40 22 30 34 36 38 38 37 35 33 36 31 32 33 30 31 32 34 36 39 39 37
59 58 60 62 64 63 64 65 64 62 60 55 48 48 50 51 48 55 53 49 51 45 37 36 39 43 42 44 43 37 35 34 33 34 33 35 35 36 33 34 36 37 38
60 62 59 60 59 59 63 63 66 57 60 58 50 49 51 51 53 51 53 55 49 53 47 50 50 51 49 50 46 41 35 36 36 36 36 36 38 37 38 35 35 35 36
Wind_Direction
218 213 217 218 220 221 216 217 218 219 217 216 215 212 213 208 205 190 177 174 180 159 46 28 23 6 5 13 17 11 7 9 8 3 359 360 358 360 355 354 351 351 351
219 217 217 220 220 221 219 218 218 225 223 218 220 221 222 222 226 223 209 201 195 203 217 312 331 339 341 351 10 6 3 0 1 4 358 354 2 4 356 352 349 348 349
214 220 220 218 220 222 224 220 217 219 228 228 223 230 233 234 237 238 235 228 225 224 235 270 294 315 321 325 355 6 353 0 351 357 3 1 360 355 355 351 347 345 344
214 216 220 220 217 219 224 224 223 220 221 229 230 240 243 244 248 246 243 239 239 242 247 257 276 293 303 311 331 348 355 348 345 345 356 358 358 355 354 351 348 347 340
222 214 217 217 219 220 220 223 225 225 223 224 235 241 248 249 251 253 251 251 246 249 253 259 271 286 301 311 327 334 348 346 346 350 352 352 353 356 352 349 349 347 346
227 221 218 219 218 220 224 222 223 224 226 226 226 235 242 247 250 255 259 260 257 254 258 266 269 281 291 306 320 329 325 338 345 347 349 348 352 354 348 347 348 347 345
229 223 218 219 224 224 225 228 231 229 230 233 231 231 236 243 248 259 264 268 272 266 262 270 276 282 289 297 313 319 330 335 344 344 346 347 349 348 348 347 345 348 346
235 230 226 221 220 227 230 230 233 237 239 240 241 240 238 239 245 254 261 272 280 277 273 269 275 282 287 297 311 316 317 334 340 340 338 342 348 345 347 347 345 347 344
229 231 229 229 227 229 234 235 234 234 239 241 244 247 248 248 251 254 257 262 267 273 279 279 279 282 286 297 308 306 316 326 335 336 338 339 346 343 346 346 345 343 343
223 223 229 232 232 231 234 236 237 237 238 239 240 243 247 250 255 259 263 264 267 269 268 277 278 282 286 292 291 304 310 314 322 329 336 339 343 344 344 345 344 341 340
220 221 225 230 234 238 239 239 239 240 241 243 245 248 250 251 253 258 263 270 274 273 270 266 272 279 284 279 277 292 299 307 315 326 332 336 340 340 342 344 342 339 341
221 221 222 228 233 241 246 249 245 242 243 246 248 249 251 253 256 259 264 269 273 274 274 272 269 275 278 279 275 285 295 304 313 321 328 333 336 337 339 341 339 337 337
238 236 236 237 242 250 250 251 255 252 249 247 250 250 252 254 251 254 258 261 265 269 271 274 275 275 279 277 278 282 293 301 310 317 324 330 334 335 337 338 336 335 338
239 247 251 254 260 267 270 265 258 258 254 254 255 256 255 253 252 253 252 254 259 263 266 269 275 278 281 284 284 279 286 297 307 312 321 327 332 334 335 335 335 335 338
237 239 248 255 258 261 269 271 263 255 259 257 258 260 258 257 258 256 256 253 255 261 265 269 273 278 282 280 281 283 286 297 303 310 318 323 328 331 334 334 335 336 337
237 242 249 253 254 259 266 268 270 258 256 257 255 257 260 261 259 257 255 256 254 257 263 265 268 274 279 278 279 285 293 295 302 306 314 319 324 329 333 334 334 334 337
240 242 247 253 255 258 259 261 262 262 257 254 253 256 257 258 258 259 257 257 257 255 259 264 267 268 271 275 279 283 289 289 296 302 310 317 322 329 329 330 331 333 336
243 245 248 250 252 258 263 263 261 258 260 259 259 255 255 258 258 258 257 255 256 258 258 260 263 267 271 277 277 280 283 288 294 303 310 315 322 328 330 330 330 331 335
241 243 247 250 254 256 260 262 258 258 258 256 254 256 254 256 258 256 255 255 253 253 255 258 261 264 269 274 277 280 284 291 299 304 310 315 321 326 328 329 328 330 333
241 242 243 248 253 255 254 256 257 250 255 259 255 254 255 255 256 255 252 246 245 247 250 253 257 259 264 272 277 280 283 292 298 306 310 311 317 323 324 325 326 329 331
238 241 244 246 248 250 251 253 256 265 268 262 257 257 254 251 251 251 253 253 250 244 243 246 251 253 256 263 270 278 286 294 301 308 319 322 319 323 327 325 324 327 328
238 239 240 244 248 250 248 246 248 251 254 258 256 254 254 253 251 251 254 253 253 228 220 223 239 247 256 264 273 283 290 298 301 306 313 319 318 321 324 322 322 324 325
237 238 241 243 247 249 246 250 256 248 246 250 247 247 250 251 251 247 247 256 230 216 199 214 238 249 258 267 276 282 291 297 305 307 312 320 317 320 321 321 319 320 323
237 239 241 242 245 248 250 251 257 265 267 259 254 246 248 248 242 246 251 258 260 236 234 235 245 253 261 268 272 281 288 291 298 306 310 311 314 318 318 317 315 318 319
239 240 242 245 244 246 248 251 252 257 260 264 253 252 253 254 250 248 247 257 263 281 244 247 257 260 263 269 269 275 281 277 283 300 300 309 315 318 318 315 314 315 315
242 244 245 245 246 248 251 255 257 261 257 247 246 253 261 260 255 261 256 256 254 258 257 264 263 259 262 268 268 270 270 270 280 293 300 306 312 315 315 311 311 311 313